User: anonymous   Login
Location: Mizzole
(45.4833°N, 11.0500°E)
Time: 15:26:26
(UTC+00:00)
Language:

Cosmos 2297 - Orbit

View from above orbital plane
View from above orbital plane
View from above satellite
View from above satellite

Ground track
Ground track

The orbit data is extracted from the following two-line orbital elements,

1 23404U 94077A   19341.90492322 -.00000189 +00000-0 -75252-4 0  9994
2 23404 071.0138 201.1639 0017394 224.6352 135.3371 14.13527971291730
Epoch (UTC): 07 December 2019 21:43:05
Eccentricity: 0.0017394
inclination: 71.0138°
perigee height: 835 km
apogee height: 860 km
right ascension of ascending node: 201.1639°
argument of perigee: 224.6352°
revolutions per day: 14.13527971
mean anomaly at epoch: 135.3371°
orbit number at epoch: 29173

The dashed part of the orbit path shows where the satellite is in the earth's shadow,  

DLR